Location: Chemnitz
(49.5500°N, 11.5830°E)
Time: 22:31:33
(UTC+01:00)

ISS - Visible Passes

Search period start: 25 February 2018 00:00
Search period end: 07 March 2018 00:00
Orbit: 403 x 406 km, 51.6° (Epoch: 26 February)

Date Brightness Start Highest point End Pass type
(mag) Time Alt. Az. Time Alt. Az. Time Alt. Az.
26 Feb -0.9 06:25:05 10° S 06:27:14 16° SE 06:29:23 10° E visible
28 Feb -2.0 06:16:02 10° SSW 06:18:57 30° SSE 06:21:53 10° E visible
01 Mar -1.4 05:24:26 10° S 05:26:52 19° SE 05:29:19 10° E visible
02 Mar -1.0 04:34:18 12° SE 04:34:50 12° SE 04:36:10 10° ESE visible
02 Mar -3.2 06:07:32 10° SW 06:10:45 55° SSE 06:13:58 10° ENE visible
03 Mar -2.6 05:17:00 22° SSW 05:18:33 35° SSE 05:21:36 10° E visible
04 Mar -1.7 04:26:55 22° SE 04:26:55 22° SE 04:29:03 10° E visible
04 Mar -3.8 05:59:34 12° WSW 06:02:35 89° SE 06:05:53 10° ENE visible
05 Mar -3.6 05:09:24 42° SW 05:10:17 63° SSE 05:13:32 10° ENE visible
06 Mar -2.0 04:19:09 30° ESE 04:19:09 30° ESE 04:21:10 10° ENE visible
06 Mar -3.7 05:51:48 15° W 05:54:26 67° NNW 05:57:43 10° ENE visible
